This demonstration page uses our WeatherBlox Daily Observations layout. Learn more.

Left ArrowRight Arrow

Hourly Observations for May 9, 2019

Temp ( °F °C ) Dew Point ( °F °C ) Humidity (%) Winds ( mph kmh ) Pressure ( in mb ) Visibility ( mi km ) Precip ( " mm )
12:28 am 00:28 Cloudy 54 12.2 48 8.9 80 80 N 22 35 29.83 1010 10 16 0.00 0.00
12:53 am 00:53 Cloudy 53 11.7 46 7.8 77 77 N 17 28 29.83 1010 10 16 0.00 0.00
1:11 am 01:11 Cloudy 53 11.7 45 7.2 74 74 N 20 31 29.86 1011 10 16 0.00 0.00
1:53 am 01:53 Cloudy 52 11.1 45 7.2 77 77 N 16 26 29.85 1011 10 16 0.00 0.00
2:53 am 02:53 Cloudy 51 10.6 43 6.1 74 74 N 20 31 29.85 1011 10 16 0.00 0.00
3:53 am 03:53 Cloudy 48 8.9 38 3.3 68 68 N 20 31 29.87 1011 10 16 0.00 0.00
4:53 am 04:53 Cloudy 48 8.9 39 3.9 71 71 NNW 18 30 29.92 1013 10 16 0.00 0.00
5:53 am 05:53 Cloudy 45 7.2 36 2.2 71 71 N 21 33 29.93 1014 10 16 0.00 0.00
6:53 am 06:53 Cloudy 45 7.2 36 2.2 71 71 N 17 28 29.94 1014 10 16 0.00 0.00
7:53 am 07:53 Cloudy 44 6.7 36 2.2 73 73 N 17 28 29.96 1015 10 16 0.00 0.00
8:53 am 08:53 Cloudy 44 6.7 35 1.7 71 71 N 21 33 29.99 1016 10 16 0.00 0.00
9:53 am 09:53 Cloudy 45 7.2 35 1.7 68 68 N 17 28 30.00 1016 10 16 0.00 0.00
10:53 am 10:53 Cloudy 45 7.2 35 1.7 68 68 N 16 26 30.03 1017 10 16 0.00 0.00
11:53 am 11:53 Cloudy with Light Rain 45 7.2 37 2.8 74 74 N 17 28 30.05 1018 10 16 0.00 0.03
12:53 pm 12:53 Cloudy with Light Rain 45 7.2 38 3.3 77 77 N 13 20 30.09 1019 10 16 0.02 0.51
1:53 pm 13:53 Cloudy 47 8.3 37 2.8 69 69 N 14 22 30.09 1019 10 16 0.00 0.03
2:53 pm 14:53 Cloudy 50 10 38 3.3 63 63 N 16 26 30.08 1019 10 16 0.00 0.00
3:53 pm 15:53 Cloudy 49 9.4 37 2.8 64 64 NNW 17 28 30.09 1019 10 16 0.00 0.03
4:45 pm 16:45 Mostly Cloudy 50 10 37 2.8 61 61 N 15 24 30.09 1019 10 16 0.00 0.00
4:53 pm 16:53 Mostly Cloudy 50 10 37 2.8 61 61 N 14 22 30.08 1019 10 16 0.00 0.00
5:00 pm 17:00 Mostly Cloudy 50 10 37 2.8 61 61 N 13 20 30.09 1019 10 16 0.00 0.00
5:34 pm 17:34 Mostly Cloudy 51 10.6 38 3.3 61 61 N 15 24 30.08 1019 10 16 0.00 0.00
5:53 pm 17:53 Mostly Cloudy 51 10.6 38 3.3 61 61 N 12 19 30.07 1018 10 16 0.00 0.00
6:53 pm 18:53 Cloudy 51 10.6 39 3.9 64 64 N 12 19 30.07 1018 10 16 0.00 0.00
7:53 pm 19:53 Mostly Cloudy 51 10.6 40 4.4 66 66 N 10 17 30.09 1019 10 16 0.00 0.00
8:53 pm 20:53 Mostly Cloudy 50 10 41 5 71 71 N 7 11 30.11 1020 10 16 0.00 0.00
9:53 pm 21:53 Mostly Cloudy 47 8.3 41 5 80 80 WNW 5 7 30.14 1021 10 16 0.00 0.00
10:53 pm 22:53 Partly Cloudy 47 8.3 41 5 80 80 Calm 30.16 1022 10 16 0.00 0.00
11:53 pm 23:53 Mostly Cloudy 47 8.3 43 6.1 86 86 SW 3 6 30.19 1022 10 16 0.00 0.00

Powered by AerisWeather